When you browse on this site, cookies collect data to enhance your experience and personalize the content and advertising you see.
Visit our Privacy Policy to learn more. By continuing to use the site, you agree to this use of cookies and data.
  • In Denmark
  • List of Countries
  • For 7 days
  • Water Temperature
  • Weather Map
  • Weather Widgets
  • user-avatar
    Login

    Hourly Weather Pleven

    Today, 29 February, Saturday

    Time Temperature Precipitation Wind Pressure Humidity
    00:00 +2°C° 0.1 mm 6 mps 742 mmHg 75%
    01:00 0°C° 0.1 mm 7 mps 743 mmHg 76%
    02:00 0°C° 0 mm 7 mps 743 mmHg 79%
    03:00 0°C° 0.1 mm 7 mps 743 mmHg 77%
    04:00 -1°C° 0.1 mm 7 mps 744 mmHg 76%
    05:00 -1°C° 0.1 mm 7 mps 744 mmHg 74%
    06:00 -1°C° 0.1 mm 6 mps 745 mmHg 74%
    07:00 0°C° 0.1 mm 5 mps 746 mmHg 74%
    08:00 0°C° 0.1 mm 4 mps 746 mmHg 74%
    09:00 +1°C° 0 mm 4 mps 747 mmHg 69%
    10:00 +4°C° 0 mm 4 mps 747 mmHg 64%
    11:00 +5°C° 0 mm 4 mps 747 mmHg 59%
    12:00 +6°C° 0 mm 4 mps 747 mmHg 55%
    13:00 +8°C° 0 mm 3 mps 747 mmHg 51%
    14:00 +8°C° 0 mm 3 mps 747 mmHg 47%
    15:00 +8°C° 0 mm 2 mps 747 mmHg 47%
    16:00 +9°C° 0 mm 1 mps 747 mmHg 46%
    17:00 +9°C° 0 mm 1 mps 747 mmHg 45%
    18:00 +8°C° 0 mm 1 mps 747 mmHg 50%
    19:00 +7°C° 0 mm 1 mps 747 mmHg 55%
    20:00 +5°C° 0 mm 2 mps 747 mmHg 60%
    21:00 +5°C° 0 mm 2 mps 747 mmHg 62%
    22:00 +5°C° 0 mm 2 mps 747 mmHg 64%
    23:00 +4°C° 0 mm 2 mps 747 mmHg 66%

    Tomorrow, 1 March, Sunday

    Time Temperature Precipitation Wind Pressure Humidity
    00:00 +4°C° 0 mm 2 mps 747 mmHg 66%
    01:00 +4°C° 0 mm 2 mps 747 mmHg 67%
    02:00 +4°C° 0 mm 2 mps 747 mmHg 67%
    03:00 +4°C° 0 mm 2 mps 747 mmHg 68%
    04:00 +4°C° 0 mm 2 mps 746 mmHg 68%
    05:00 +4°C° 0 mm 2 mps 746 mmHg 69%
    06:00 +5°C° 0 mm 1 mps 746 mmHg 68%
    07:00 +5°C° 0 mm 1 mps 746 mmHg 68%
    08:00 +5°C° 0 mm 1 mps 746 mmHg 68%
    09:00 +7°C° 0 mm 1 mps 746 mmHg 60%
    10:00 +9°C° 0 mm 1 mps 746 mmHg 53%
    11:00 +11°C° 0 mm 1 mps 746 mmHg 45%
    12:00 +12°C° 0 mm 1 mps 745 mmHg 43%
    13:00 +13°C° 0 mm 1 mps 745 mmHg 40%
    14:00 +14°C° 0 mm 1 mps 745 mmHg 37%
    15:00 +14°C° 0 mm 1 mps 744 mmHg 40%
    16:00 +14°C° 0 mm 1 mps 744 mmHg 43%
    17:00 +14°C° 0 mm 1 mps 743 mmHg 46%
    18:00 +13°C° 0 mm 1 mps 743 mmHg 50%
    19:00 +11°C° 0 mm 1 mps 744 mmHg 54%
    20:00 +10°C° 0 mm 1 mps 744 mmHg 58%
    21:00 +9°C° 0 mm 1 mps 744 mmHg 59%
    22:00 +9°C° 0 mm 1 mps 744 mmHg 61%
    23:00 +8°C° 0 mm 1 mps 744 mmHg 63%

    Day after tomorrow, 2 March, Monday

    Time Temperature Precipitation Wind Pressure Humidity
    00:00 +8°C° 0 mm 1 mps 743 mmHg 63%
    01:00 +8°C° 0 mm 1 mps 743 mmHg 64%
    02:00 +8°C° 0 mm 1 mps 743 mmHg 65%
    03:00 +7°C° 0 mm 2 mps 742 mmHg 64%
    04:00 +7°C° 0 mm 2 mps 742 mmHg 62%
    05:00 +8°C° 0 mm 2 mps 741 mmHg 61%
    06:00 +8°C° 0 mm 2 mps 741 mmHg 61%
    07:00 +8°C° 0 mm 2 mps 741 mmHg 61%
    08:00 +9°C° 0 mm 2 mps 741 mmHg 61%
    09:00 +12°C° 0 mm 2 mps 741 mmHg 56%
    10:00 +13°C° 0 mm 3 mps 741 mmHg 52%
    11:00 +16°C° 0 mm 3 mps 741 mmHg 47%
    12:00 +17°C° 0 mm 4 mps 741 mmHg 46%
    13:00 +18°C° 0 mm 4 mps 740 mmHg 44%
    14:00 +19°C° 0 mm 5 mps 740 mmHg 43%
    15:00 +19°C° 0 mm 4 mps 740 mmHg 46%
    16:00 +18°C° 0 mm 3 mps 740 mmHg 49%
    17:00 +18°C° 0 mm 2 mps 739 mmHg 53%
    18:00 +16°C° 0 mm 2 mps 740 mmHg 57%
    19:00 +15°C° 0 mm 2 mps 740 mmHg 62%
    20:00 +13°C° 0 mm 1 mps 741 mmHg 66%
    21:00 +13°C° 0 mm 2 mps 741 mmHg 67%
    22:00 +13°C° 0 mm 2 mps 741 mmHg 68%
    23:00 +12°C° 0 mm 2 mps 741 mmHg 69%

    3 March, Tuesday

    Time Temperature Precipitation Wind Pressure Humidity
    00:00 +12°C° 0 mm 2 mps 741 mmHg 69%
    01:00 +12°C° 0 mm 2 mps 740 mmHg 69%
    02:00 +12°C° 0 mm 2 mps 740 mmHg 68%
    03:00 +12°C° 0 mm 2 mps 740 mmHg 68%
    04:00 +12°C° 0 mm 2 mps 739 mmHg 68%
    05:00 +11°C° 0 mm 3 mps 738 mmHg 68%
    06:00 +11°C° 0 mm 3 mps 738 mmHg 68%
    07:00 +11°C° 0 mm 3 mps 738 mmHg 67%
    08:00 +11°C° 0 mm 3 mps 738 mmHg 67%
    09:00 +13°C° 0 mm 3 mps 738 mmHg 61%
    10:00 +16°C° 0 mm 3 mps 738 mmHg 55%
    11:00 +18°C° 0 mm 3 mps 737 mmHg 49%
    12:00 +19°C° 0 mm 4 mps 737 mmHg 45%
    13:00 +20°C° 0 mm 4 mps 736 mmHg 41%
    14:00 +21°C° 0 mm 4 mps 735 mmHg 37%
    15:00 +21°C° 0 mm 4 mps 735 mmHg 39%
    16:00 +20°C° 0 mm 4 mps 734 mmHg 41%
    17:00 +20°C° 0 mm 4 mps 734 mmHg 43%
    18:00 +19°C° 0 mm 4 mps 734 mmHg 46%
    19:00 +16°C° 0 mm 5 mps 734 mmHg 49%
    20:00 +15°C° 0 mm 5 mps 733 mmHg 52%
    21:00 +15°C° 0 mm 4 mps 733 mmHg 56%
    22:00 +14°C° 0 mm 4 mps 733 mmHg 60%
    23:00 +13°C° 0 mm 3 mps 733 mmHg 64%

    4 March, Wednesday

    Time Temperature Precipitation Wind Pressure Humidity
    00:00 +13°C° 0.1 mm 3 mps 733 mmHg 67%
    01:00 +12°C° 0.1 mm 3 mps 733 mmHg 70%
    02:00 +12°C° 0.1 mm 3 mps 733 mmHg 73%
    03:00 +11°C° 0.8 mm 3 mps 733 mmHg 78%
    04:00 +10°C° 0.8 mm 3 mps 733 mmHg 83%
    05:00 +8°C° 0.8 mm 4 mps 733 mmHg 87%
    06:00 +8°C° 1.9 mm 4 mps 733 mmHg 86%
    07:00 +8°C° 1.9 mm 4 mps 733 mmHg 84%
    08:00 +7°C° 1.9 mm 4 mps 734 mmHg 82%
    09:00 +8°C° 0.3 mm 4 mps 734 mmHg 78%
    10:00 +8°C° 0.3 mm 4 mps 735 mmHg 74%
    11:00 +8°C° 0.3 mm 4 mps 735 mmHg 70%
    12:00 +10°C° 0.1 mm 4 mps 735 mmHg 68%
    13:00 +10°C° 0.1 mm 4 mps 735 mmHg 66%
    14:00 +10°C° 0.1 mm 4 mps 736 mmHg 65%
    15:00 +10°C° 0.4 mm 4 mps 736 mmHg 65%
    16:00 +8°C° 0.4 mm 4 mps 736 mmHg 65%
    17:00 +8°C° 0.4 mm 4 mps 736 mmHg 65%
    18:00 +8°C° 0 mm 3 mps 737 mmHg 67%
    19:00 +7°C° 0 mm 3 mps 737 mmHg 69%
    20:00 +7°C° 0 mm 3 mps 738 mmHg 70%
    21:00 +7°C° 0 mm 3 mps 738 mmHg 70%
    22:00 +5°C° 0 mm 3 mps 739 mmHg 69%
    23:00 +5°C° 0 mm 3 mps 739 mmHg 69%

    5 March, Thursday

    Time Temperature Precipitation Wind Pressure Humidity
    00:00 +5°C° 0 mm 4 mps 739 mmHg 68%
    01:00 +5°C° 0 mm 4 mps 739 mmHg 68%
    02:00 +5°C° 0 mm 4 mps 740 mmHg 68%
    03:00 +4°C° 0 mm 4 mps 740 mmHg 69%
    04:00 +4°C° 0 mm 4 mps 740 mmHg 70%
    05:00 +4°C° 0 mm 4 mps 740 mmHg 71%
    06:00 +4°C° 0 mm 3 mps 740 mmHg 70%
    07:00 +4°C° 0 mm 3 mps 740 mmHg 69%
    08:00 +4°C° 0 mm 3 mps 740 mmHg 69%
    09:00 +5°C° 0 mm 3 mps 741 mmHg 62%
    10:00 +6°C° 0 mm 4 mps 741 mmHg 56%
    11:00 +7°C° 0 mm 4 mps 741 mmHg 50%
    12:00 +8°C° 0 mm 4 mps 741 mmHg 47%
    13:00 +10°C° 0 mm 4 mps 740 mmHg 45%
    14:00 +10°C° 0 mm 4 mps 740 mmHg 43%
    15:00 +10°C° 0 mm 4 mps 740 mmHg 43%
    16:00 +10°C° 0 mm 3 mps 740 mmHg 44%
    17:00 +10°C° 0 mm 3 mps 740 mmHg 44%
    18:00 +9°C° 0 mm 2 mps 740 mmHg 48%
    19:00 +9°C° 0 mm 1 mps 741 mmHg 52%
    20:00 +8°C° 0 mm 1 mps 741 mmHg 56%
    21:00 +7°C° 0 mm 1 mps 741 mmHg 58%
    22:00 +7°C° 0 mm 1 mps 741 mmHg 59%
    23:00 +7°C° 0 mm 1 mps 741 mmHg 60%
    Show more